星链-30242 (STARLINK-30242 )

导读 | 星芒AI

STARLINK-30242 是 SpaceX Starlink 卫星互联网项目中的一颗低轨道卫星,属于第 12 批部署的星链卫星之一。该卫星于 2023 年发射,运行在约 550 公里的高度,旨在为全球提供高速、低延迟的宽带互联网服务。作为 Starlink 项目的一部分,它支持偏远地区的网络接入,提升全球通信能力。该卫星采用可重复使用设计,具备自主变轨和避障功能,有助于减少太空碎片风险。

基本信息
目录编号:
57739
目录名称:
STARLINK-30242
国际标识:
2023-131H
轨道中心:
EARTH
卫星名称:
星链-30242
卫星全名:
星链-30242 (STARLINK-30242 )
卫星状态:
在轨 (已飞行790 天)
发射日期:
2023-09-01 UTC
国别 :
美国 (US)
星等 :
--
轨道信息
数据来源 国际轨道数据
星历时间: 2025-10-30T13:16:42+0800
13小时前
查看轨道信息
半长轴: 6937.19km
偏心率: 0.0001817
轨道倾角: 43.007°
近地点辐角 269.805°
升交点赤经 135.363°
平近点角 90.258°
近地点: 557.794km
远地点: 560.316km
周期: 95.837分钟
每日圈数: 15.025448
详细信息
固有亮度:
5
最大亮度:
0.3
卫星平台:
Starlink v2.0 mini
覆盖范围:
全球
运营商:
太空探索技术公司
运营商所在国:
美国
制造商(研发单位):
太空探索技术公司
制造商所在国:
美国
使用方式:
暂无
卫星简介
星链(Starlink)计划是由太空探索技术公司(SpaceX)提出的一个巨型低轨卫星互联网星座项目,计划在2019年至2024年间在太空搭建由约1.2万颗卫星组成的“星链”网络,其中1584颗将部署在地球上空550千米处的近地轨道,并从2020年开始工作。该卫星仍在工作。
2D轨道图
3D轨道图
轨道高度分析图
轨道倾角分析图
轨道综合分析图
查看轨道综合分析图